Printer-friendly version

IAU Minor Planet Center

Minor Planet Center

183P/Korlevic-Juric

Orbital Elements

The following orbital elements are taken from MPC 58540:
183P/Korlevic-Juric
Epoch 2008 May 14.0 TT = JDT 2454600.5
T 2008 May  9.1170 TT                                   MPC
q   3.893979             (2000.0)            P               Q
n   0.1030437      Peri.  161.6770      -0.9746770      -0.2212149
a   4.505971       Node     5.8431      +0.1429124      -0.7286588
e   0.135818       Incl.   18.7306      +0.1719908      -0.6481668
P   9.56
From 54 observations 1954-2006, mean residual 0".7.
Elements are also available for the current standard epoch:
183P/Korlevic-Juric
Epoch 2010 Jan. 4.0 TT = JDT 2455200.5
T 2008 May 7.2976 TT                                    MPC
q   3.893296             (2000.0)            P               Q
n   0.1032312      Peri.  161.4384      -0.9737663      -0.2251835
a   4.500513       Node     5.8488      +0.1458330      -0.7280074
e   0.134922       Incl.   18.7369      +0.1746764      -0.6475320
P   9.55
An explanation of the orbital elements is available.

These orbital elements are also available in forms suitable for loading into a number of popular planetarium-type software programs.


Ephemeris

The following ephemeris is at intervals of five days. A daily ephemeris covering the same time interval is also available.

Personalized ephemerides for this (and other) objects may be generated using the Minor Planet & Comet Ephemeris Service.

Recent magnitude estimates for this comet (as reported to the ICQ) may be available.

Date    TT    R. A. (2000) Decl.     Delta      r     Elong.  Phase   m1    m2

WARNING!

This comet gets close to the sun during the period covered in the ephemeris below. Observers are warned to be wary of observing comets near the sun. NEVER point any kind of optical instrument at the sun--instant blindness will be the probable result.

2010 01 24 16 50.37 -36 56.7 4.885 4.313 49.6 10.0 19.8 2010 01 29 16 55.89 -37 20.0 4.833 4.319 53.4 10.5 19.8 2010 02 03 17 01.23 -37 43.2 4.778 4.324 57.2 11.0 19.8 2010 02 08 17 06.37 -38 06.5 4.721 4.330 61.0 11.5 19.8 2010 02 13 17 11.29 -38 29.7 4.661 4.335 64.9 11.9 19.7 2010 02 18 17 15.95 -38 53.1 4.598 4.341 68.8 12.3 19.7 2010 02 23 17 20.34 -39 16.6 4.534 4.346 72.8 12.6 19.7 2010 02 28 17 24.43 -39 40.3 4.469 4.352 76.8 12.8 19.7 2010 03 05 17 28.20 -40 04.3 4.402 4.357 80.9 13.0 19.7 2010 03 10 17 31.63 -40 28.5 4.335 4.363 85.0 13.1 19.6 2010 03 15 17 34.69 -40 52.9 4.267 4.368 89.2 13.2 19.6 2010 03 20 17 37.34 -41 17.7 4.200 4.374 93.4 13.1 19.6 2010 03 25 17 39.57 -41 42.7 4.133 4.379 97.7 13.0 19.6 2010 03 30 17 41.35 -42 07.8 4.067 4.385 102.0 12.9 19.5 2010 04 04 17 42.66 -42 33.0 4.002 4.390 106.4 12.6 19.5 2010 04 09 17 43.48 -42 58.2 3.940 4.396 110.8 12.3 19.4 2010 04 14 17 43.79 -43 23.2 3.880 4.401 115.2 11.9 19.4 2010 04 19 17 43.58 -43 47.8 3.822 4.407 119.6 11.4 19.3 2010 04 24 17 42.84 -44 11.7 3.769 4.412 124.1 10.9 19.3 2010 04 29 17 41.57 -44 34.6 3.719 4.418 128.6 10.3 19.2 2010 05 04 17 39.79 -44 56.2 3.674 4.423 133.0 9.6 19.2 2010 05 09 17 37.52 -45 16.2 3.634 4.429 137.3 8.9 19.1 2010 05 14 17 34.78 -45 34.2 3.598 4.434 141.5 8.2 19.1 2010 05 19 17 31.61 -45 49.9 3.569 4.440 145.5 7.4 19.0 2010 05 24 17 28.09 -46 02.9 3.546 4.445 149.1 6.7 19.0 2010 05 29 17 24.28 -46 13.0 3.528 4.451 152.3 6.1 19.0 2010 06 03 17 20.25 -46 19.9 3.518 4.456 154.8 5.6 18.9 2010 06 08 17 16.08 -46 23.5 3.514 4.462 156.3 5.3 18.9 2010 06 13 17 11.87 -46 23.8 3.517 4.467 156.7 5.2 18.9 2010 06 18 17 07.72 -46 20.8 3.526 4.473 155.9 5.3 18.9 2010 06 23 17 03.70 -46 14.6 3.543 4.478 154.0 5.7 19.0 2010 06 28 16 59.92 -46 05.5 3.565 4.484 151.3 6.3 19.0 2010 07 03 16 56.42 -45 53.9 3.595 4.489 148.0 6.9 19.1 2010 07 08 16 53.29 -45 40.0 3.630 4.495 144.3 7.6 19.1 2010 07 13 16 50.57 -45 24.2 3.671 4.500 140.3 8.3 19.2 2010 07 18 16 48.31 -45 06.9 3.718 4.506 136.1 9.0 19.2 2010 07 23 16 46.53 -44 48.6 3.770 4.511 131.8 9.7 19.3 2010 07 28 16 45.24 -44 29.7 3.826 4.516 127.5 10.3 19.3 2010 08 02 16 44.47 -44 10.4 3.886 4.522 123.2 10.8 19.4 2010 08 07 16 44.20 -43 51.0 3.950 4.527 118.8 11.3 19.5 2010 08 12 16 44.43 -43 31.9 4.018 4.533 114.5 11.7 19.5 2010 08 17 16 45.15 -43 13.1 4.088 4.538 110.2 12.1 19.6 2010 08 22 16 46.34 -42 55.0 4.160 4.544 105.9 12.4 19.6 2010 08 27 16 47.98 -42 37.6 4.235 4.549 101.7 12.6 19.7 2010 09 01 16 50.06 -42 21.0 4.310 4.554 97.6 12.7 19.7 2010 09 06 16 52.54 -42 05.3 4.387 4.560 93.4 12.7 19.8 2010 09 11 16 55.42 -41 50.4 4.464 4.565 89.4 12.7 19.8 2010 09 16 16 58.66 -41 36.4 4.541 4.570 85.3 12.7 19.8 2010 09 21 17 02.24 -41 23.2 4.618 4.576 81.3 12.5 19.9 2010 09 26 17 06.14 -41 10.9 4.694 4.581 77.4 12.3 19.9 2010 10 01 17 10.34 -40 59.2 4.769 4.586 73.5 12.1 19.9 2010 10 06 17 14.82 -40 48.3 4.843 4.592 69.6 11.8 20.0 2010 10 11 17 19.55 -40 37.9 4.915 4.597 65.8 11.4 20.0 2010 10 16 17 24.53 -40 28.1 4.985 4.602 62.0 11.0 20.0 2010 10 21 17 29.72 -40 18.7 5.053 4.607 58.3 10.6 20.0 2010 10 26 17 35.11 -40 09.7 5.117 4.613 54.6 10.1 20.0 2010 10 31 17 40.68 -40 01.0 5.179 4.618 50.9 9.6 20.0 2010 11 05 17 46.41 -39 52.6 5.238 4.623 47.3 9.1 20.0 2010 11 10 17 52.30 -39 44.3 5.293 4.628 43.7 8.5 20.0 2010 11 15 17 58.32 -39 36.0 5.345 4.634 40.2 7.9 20.0 2010 11 20 18 04.45 -39 27.9 5.393 4.639 36.7 7.3 20.0 2010 11 25 18 10.68 -39 19.7 5.437 4.644 33.3 6.7 20.0 2010 11 30 18 16.99 -39 11.5 5.476 4.649 30.1 6.1 20.0 2010 12 05 18 23.37 -39 03.1 5.511 4.654 26.9 5.5 20.0 2010 12 10 18 29.81 -38 54.7 5.542 4.659 23.9 4.9 20.0 2010 12 15 18 36.29 -38 46.2 5.568 4.664 21.2 4.4 20.0 2010 12 20 18 42.79 -38 37.5 5.590 4.669 18.8 3.9 19.9 2010 12 25 18 49.31 -38 28.6 5.606 4.674 17.0 3.5 19.9 2010 12 30 18 55.82 -38 19.7 5.618 4.679 15.8 3.3 19.9 2011 01 04 19 02.32 -38 10.6 5.625 4.684 15.4 3.2 19.9 2011 01 09 19 08.79 -38 01.4 5.627 4.689 16.0 3.3 19.9 2011 01 14 19 15.21 -37 52.2 5.624 4.694 17.3 3.6 19.9 2011 01 19 19 21.58 -37 42.9 5.616 4.699 19.3 4.0 20.0 2011 01 24 19 27.88 -37 33.7 5.604 4.704 21.8 4.5 20.0 2011 01 29 19 34.11 -37 24.5 5.587 4.709 24.6 5.0 20.0 2011 02 03 19 40.24 -37 15.5 5.565 4.714 27.7 5.6 20.0 2011 02 08 19 46.27 -37 06.7 5.538 4.719 30.9 6.2 20.1 2011 02 13 19 52.17 -36 58.2 5.507 4.724 34.2 6.8 20.1 2011 02 18 19 57.95 -36 50.0 5.472 4.728 37.7 7.3 20.1 2011 02 23 20 03.58 -36 42.3 5.432 4.733 41.2 7.9 20.1 2011 02 28 20 09.06 -36 35.1 5.389 4.738 44.8 8.5 20.1

Valid HTML 4.01!